Location: Unspecified
(41.1637°N, 24.2901°E)
Time: 23:29:23
(UTC+02:00)

X-37B - Pass Details

Date: 12 March 2021
Orbit: 380 x 394 km, 45.0° (Epoch: 07 April)

Event Time Altitude Azimuth Distance (km) Brightness Sun altitude
Rises 19:18:45 0° 252° (WSW) 2,266 5.4 -21.8°
Reaches altitude 10° 19:20:49 10° 254° (WSW) 1,416 4.2 -22.1°
Enters shadow 19:23:06 43° 263° (W) 559 1.7 -22.6°
